[[{"header":{"parameterUnit":"m.s-1","parameterCategory":1,"la1":30.2991,"la2":30.254,"lo1":-89.0895,"lo2":-89.0444,"dy":0.0017,"dx":0.0017,"nx":28,"ny":28,"refTime":"2024-10-07T21:00:00:Z","depth":0,"parameterNumber":2,"parameterNumberName":"U-component_of_WINDS"},"data":[0,0,0,0,0,0,0,0,0,0,0,0,0,0,0,0,0,0,0,0,0,0,0,0,0,0,0,0,0,0,0,0,0,0,0,0,0,0,0,0,0,0,0,0,0,0,0,0,0,0,0,0,0,0,0,0,0,0,-1.1537,-1.1538,0,-1.1598,-1.1599,-1.16,-1.1554,-1.1552,-1.155,-1.1548,-1.1613,-1.1617,-1.162,0,0,0,0,0,0,0,0,0,0,0,0,0,-1.1382,-1.1385,-1.1537,-1.1538,-1.1539,-1.1598,-1.1599,-1.16,-1.1555,-1.1552,-1.155,-1.1547,-1.1612,-1.1616,-1.1621,0,0,0,0,0,0,0,0,0,0,0,0,0,-1.1447,-1.1387,-1.1537,-1.1523,-1.1523,-1.1598,-1.1599,-1.16,-1.1555,-1.1552,-1.1549,-1.1546,-1.1611,-1.1616,-1.1621,-1.1714,0,0,-1.1638,-1.164,0,0,0,0,0,0,0,0,-1.1444,-1.1453,-1.1524,-1.1524,-1.1524,-1.1566,-1.1568,-1.1639,-1.1556,-1.1543,-1.1548,-1.1545,-1.16,-1.1606,-1.1624,-1.1717,-1.172,-1.1638,-1.1641,-1.1644,-1.1645,0,0,0,0,0,0,0,-1.1439,-1.145,-1.1561,-1.1526,-1.1525,-1.1514,-1.152,-1.1581,-1.1588,-1.1544,-1.1541,-1.1548,-1.1599,-1.1619,-1.1625,-1.1721,-1.1638,-1.1643,-1.1646,-1.1648,-1.1894,-1.1897,0,0,0,0,0,0,-1.1436,-1.1447,-1.1559,-1.1563,-1.1475,-1.152,-1.1526,-1.1555,-1.1587,-1.1589,-1.1551,-1.1546,-1.1611,-1.1619,-1.1627,-1.174,-1.1644,-1.1649,-1.1652,-1.1891,-1.1895,-1.1898,0,0,0,0,0,0,-1.1433,-1.1446,-1.1557,-1.1504,-1.1517,-1.1525,-1.1558,-1.1558,-1.1578,-1.1592,-1.1593,-1.157,-1.1609,-1.162,-1.1693,-1.1741,-1.1651,-1.1656,-1.1887,-1.1892,-1.1897,-1.1964,0,0,0,0,0,0,-1.1428,-1.1445,-1.1481,-1.1505,-1.152,-1.1622,-1.1561,-1.1561,-1.1587,-1.1581,-1.161,-1.1612,-1.1608,-1.1685,-1.1698,-1.1747,-1.166,-1.1883,-1.1889,-1.1895,-1.1958,-1.1971,-1.1982,0,0,0,0,0,-1.1423,-1.1498,-1.1483,-1.1497,-1.1565,-1.1624,-1.1633,-1.1626,-1.1591,-1.1627,-1.1636,-1.1611,-1.1733,-1.1693,-1.1707,-1.1758,-1.188,-1.1887,-1.1895,-1.1952,-1.1968,-1.1982,0,0,0,0,0,0,-1.148,-1.1501,-1.1485,-1.1569,-1.1595,-1.1617,-1.1662,-1.1643,-1.168,-1.1673,-1.1663,-1.167,-1.1747,-1.1759,-1.1715,-1.185,-1.1801,-1.1812,-1.184,-1.1855,-1.1867,-1.1864,-1.1665,0,0,0,0,0,-1.1502,-1.1548,-1.1564,-1.1637,-1.1651,-1.1654,-1.168,-1.1672,-1.1699,-1.171,-1.1724,-1.1752,-1.1796,-1.1826,-1.1867,-1.1958,-1.1965,-1.2,-1.2012,-1.2022,-1.2033,-1.2082,-1.2099,-1.1923,-1.1923,-1.1923,0,0,-1.1549,-1.1566,-1.1596,-1.1649,-1.1668,-1.1717,-1.1664,-1.1718,-1.1754,-1.1718,-1.1789,-1.18,-1.183,-1.1912,-1.1949,-1.1925,-1.2082,-1.2032,-1.204,-1.2045,-1.2092,-1.2109,-1.2123,-1.1928,-1.1927,-1.1926,0,0,-1.1659,-1.1676,-1.174,-1.176,-1.1789,-1.179,-1.1805,-1.183,-1.1836,-1.1905,-1.188,-1.1922,-1.1999,-1.2022,-1.2043,-1.2161,-1.214,-1.2175,-1.2239,-1.2288,-1.2302,-1.2314,-1.2358,-1.2374,-1.2184,-1.2184,-1.2184,0,-1.1714,-1.1786,-1.1775,-1.1831,-1.1855,-1.1823,-1.1888,-1.1908,-1.195,-1.1968,-1.1939,-1.2035,-1.2053,-1.2141,-1.2169,-1.2187,-1.2205,-1.2173,-1.2301,-1.2313,-1.2324,-1.2366,-1.2382,-1.2188,-1.2188,-1.2188,-1.2187,0,-1.1853,-1.1903,-1.1951,-1.1992,-1.2021,-1.2081,-1.2079,-1.211,-1.2099,-1.2103,-1.2175,-1.2195,-1.2241,-1.226,-1.225,-1.2347,-1.2331,-1.2302,-1.2253,-1.2345,-1.2385,-1.24,-1.2194,-1.2193,-1.2192,-1.2191,0,0,-1.2004,-1.2036,-1.2054,-1.2073,-1.2102,-1.2141,-1.2199,-1.2242,-1.227,-1.2299,-1.2349,-1.2414,-1.2387,-1.2411,-1.2403,-1.2445,-1.2539,-1.2411,-1.2411,-1.2436,-1.2649,-1.2673,-1.2691,-1.2524,-1.2527,-1.2529,-1.2647,0,-1.2118,-1.2219,-1.221,-1.2307,-1.2354,-1.2323,-1.2374,-1.2397,-1.2403,-1.2443,-1.2449,-1.2496,-1.2456,-1.247,-1.2511,-1.2519,-1.2582,-1.251,-1.2572,-1.2574,-1.2568,-1.2711,-1.2737,-1.2847,-1.2662,-1.2665,-1.2666,0,-1.2265,-1.2299,-1.24,-1.2422,-1.2442,-1.2488,-1.2527,-1.2566,-1.2592,-1.2593,-1.2619,-1.2603,-1.2663,-1.2609,-1.2691,-1.2643,-1.2667,-1.2675,-1.2679,-1.2687,-1.2628,-1.2725,-1.2882,-1.2899,-1.269,-1.2688,-1.2686,0,-1.2368,-1.2438,-1.2508,-1.2525,-1.2552,-1.2585,-1.2598,-1.2621,-1.2647,-1.2681,-1.2699,-1.2739,-1.2762,-1.2794,-1.279,-1.2751,-1.2874,-1.282,-1.2877,-1.2878,-1.2907,-1.2906,-1.3072,-1.2918,-1.2918,-1.2918,-1.2917,0,-1.2498,-1.2561,-1.2555,-1.2599,-1.2669,-1.2657,-1.2727,-1.2736,-1.2756,-1.2801,-1.2776,-1.2819,-1.2809,-1.2852,-1.2848,-1.2918,-1.2927,-1.2931,-1.293,-1.2935,-1.2935,-1.2952,-1.2946,-1.2922,-1.2921,-1.292,-1.2919,0,-1.2626,-1.2624,-1.2698,-1.2717,-1.2723,-1.2775,-1.2791,-1.2832,-1.2834,-1.2891,-1.2904,-1.2908,-1.2956,-1.2954,-1.3009,-1.3007,-1.3093,-1.3082,-1.3085,-1.3083,-1.3141,-1.3137,-1.3327,-1.3352,-1.318,-1.3181,-1.3183,0,-1.271,-1.2758,-1.2782,-1.281,-1.2825,-1.287,-1.2897,-1.2886,-1.2916,-1.2948,-1.2986,-1.3032,-1.3069,-1.3148,-1.3156,-1.3198,-1.3189,-1.3253,-1.3196,-1.3199,-1.3193,-1.3191,-1.3197,-1.3265,-1.3267,-1.3269,-1.327,0,-1.2861,-1.2857,-1.2897,-1.2936,-1.2969,-1.2999,-1.3027,-1.3051,-1.3043,-1.3077,-1.3127,-1.3155,-1.3211,-1.3258,-1.3297,-1.3311,-1.329,-1.3287,-1.3303,-1.3311,-1.3311,-1.3314,-1.3118,-1.3284,-1.3282,-1.3281,-1.3281,-1.328,-1.2971,-1.3013,-1.3036,-1.3081,-1.31,-1.3127,-1.3167,-1.3173,-1.3214,-1.3258,-1.3249,-1.3305,-1.3329,-1.338,-1.3397,-1.3441,-1.3419,-1.3441,-1.3447,-1.3454,-1.3461,-1.3302,-1.3448,-1.3447,-1.3447,-1.3447,-1.3446,0,-1.3123,-1.3136,-1.3177,-1.3216,-1.3252,-1.3226,-1.3256,-1.3288,-1.3337,-1.336,-1.3397,-1.3453,-1.3498,-1.3509,-1.3552,-1.3585,-1.3576,-1.3597,-1.3596,-1.3599,-1.3478,-1.3461,-1.3603,-1.3603,-1.3603,-1.3603,-1.3603,-1.3603,-1.3206,-1.3276,-1.3275,-1.3354,-1.3366,-1.342,-1.3439,-1.3463,-1.3482,-1.3547,-1.3584,-1.359,-1.3609,-1.3652,-1.3693,-1.3694,-1.3713,-1.3738,-1.3736,-1.3623,-1.3608,-1.3593,-1.3577,-1.3741,-1.3741,-1.3854,-1.3855,-1.3856]},{"header":{"parameterUnit":"m.s-1","parameterCategory":1,"la1":30.2991,"la2":30.254,"lo1":-89.0895,"lo2":-89.0444,"dy":0.0017,"dx":0.0017,"nx":28,"ny":28,"refTime":"2024-10-07T21:00:00:Z","depth":0,"parameterNumber":3,"parameterNumberName":"V-component_of_WINDS"},"data":[0,0,0,0,0,0,0,0,0,0,0,0,0,0,0,0,0,0,0,0,0,0,0,0,0,0,0,0,0,0,0,0,0,0,0,0,0,0,0,0,0,0,0,0,0,0,0,0,0,0,0,0,0,0,0,0,0,0,-5.8505,-5.8505,0,-5.8562,-5.8563,-5.8563,-5.8471,-5.8468,-5.8465,-5.8462,-5.8516,-5.852,-5.8524,0,0,0,0,0,0,0,0,0,0,0,0,0,-5.831,-5.8314,-5.8505,-5.8505,-5.8506,-5.8562,-5.8563,-5.8563,-5.8472,-5.8468,-5.8464,-5.846,-5.8514,-5.8519,-5.8525,0,0,0,0,0,0,0,0,0,0,0,0,0,-5.8383,-5.8315,-5.8504,-5.8467,-5.8464,-5.8562,-5.8563,-5.8564,-5.8473,-5.8468,-5.8463,-5.8459,-5.8513,-5.8519,-5.8525,-5.866,0,0,-5.8545,-5.8548,0,0,0,0,0,0,0,0,-5.8379,-5.8391,-5.8472,-5.847,-5.8467,-5.8505,-5.8514,-5.8596,-5.8474,-5.8469,-5.8462,-5.8456,-5.8516,-5.8522,-5.8543,-5.8663,-5.8665,-5.8546,-5.855,-5.8553,-5.8555,0,0,0,0,0,0,0,-5.8374,-5.8388,-5.8527,-5.8473,-5.847,-5.8446,-5.8451,-5.8529,-5.8518,-5.8469,-5.8463,-5.8471,-5.8513,-5.8536,-5.8543,-5.8666,-5.8546,-5.8552,-5.8556,-5.8558,-5.8898,-5.8903,0,0,0,0,0,0,-5.8375,-5.8384,-5.8525,-5.8529,-5.8411,-5.8453,-5.8459,-5.8497,-5.8517,-5.8516,-5.8475,-5.8467,-5.8528,-5.8536,-5.8545,-5.8703,-5.8553,-5.8559,-5.8563,-5.8893,-5.89,-5.8905,0,0,0,0,0,0,-5.8371,-5.8388,-5.8523,-5.8455,-5.847,-5.8461,-5.8505,-5.8501,-5.8524,-5.8521,-5.8518,-5.8501,-5.8524,-5.8535,-5.8632,-5.8704,-5.8562,-5.8568,-5.8887,-5.8895,-5.8902,-5.9022,0,0,0,0,0,0,-5.8366,-5.8387,-5.844,-5.8457,-5.8474,-5.8612,-5.851,-5.8505,-5.8536,-5.8526,-5.8545,-5.8544,-5.8521,-5.8623,-5.8639,-5.871,-5.8573,-5.8881,-5.8891,-5.89,-5.9012,-5.9033,-5.9051,0,0,0,0,0,-5.8359,-5.8471,-5.8443,-5.8461,-5.854,-5.8616,-5.8626,-5.8599,-5.8542,-5.8594,-5.8592,-5.8543,-5.8694,-5.8634,-5.8651,-5.8725,-5.8876,-5.8888,-5.8899,-5.9003,-5.9029,-5.9051,0,0,0,0,0,0,-5.8461,-5.8472,-5.8442,-5.8562,-5.8589,-5.86,-5.8665,-5.8628,-5.867,-5.8658,-5.8621,-5.8627,-5.8731,-5.8737,-5.8671,-5.8856,-5.8775,-5.8791,-5.8848,-5.8873,-5.8892,-5.8888,-5.8578,0,0,0,0,0,-5.8498,-5.856,-5.8566,-5.8672,-5.8687,-5.8674,-5.8706,-5.8684,-5.8709,-5.8719,-5.8724,-5.875,-5.8802,-5.8838,-5.8886,-5.9012,-5.9014,-5.9072,-5.9091,-5.9108,-5.9121,-5.9187,-5.9212,-5.8943,-5.8943,-5.8942,0,0,-5.8574,-5.8587,-5.8629,-5.8693,-5.8711,-5.8775,-5.8684,-5.8756,-5.8802,-5.8729,-5.8822,-5.8827,-5.8852,-5.8964,-5.9013,-5.8973,-5.9196,-5.9122,-5.9135,-5.914,-5.9202,-5.9227,-5.925,-5.8951,-5.8949,-5.8948,0,0,-5.8745,-5.8763,-5.8852,-5.8873,-5.8902,-5.8892,-5.8914,-5.8931,-5.8932,-5.9024,-5.8971,-5.9024,-5.9116,-5.9137,-5.9159,-5.9337,-5.9293,-5.9354,-5.9457,-5.9521,-5.9543,-5.9561,-5.9624,-5.9647,-5.9368,-5.9368,-5.9368,0,-5.8835,-5.8932,-5.8903,-5.8979,-5.9007,-5.8946,-5.9035,-5.9056,-5.9099,-5.9119,-5.9073,-5.9187,-5.92,-5.9315,-5.9359,-5.9379,-5.9401,-5.9352,-5.9542,-5.9561,-5.9578,-5.9637,-5.9661,-5.9375,-5.9374,-5.9374,-5.9373,0,-5.9041,-5.9108,-5.9177,-5.9222,-5.9258,-5.934,-5.9322,-5.9362,-5.9336,-5.9331,-5.9425,-5.9438,-5.9488,-5.9513,-5.9488,-5.9625,-5.9599,-5.9549,-5.9466,-5.9611,-5.9666,-5.9689,-5.9385,-5.9383,-5.9381,-5.9379,0,0,-5.9278,-5.9306,-5.9332,-5.9351,-5.9378,-5.9429,-5.9507,-5.9557,-5.9592,-5.9623,-5.9687,-5.9766,-5.972,-5.9745,-5.9721,-5.9778,-5.9918,-5.972,-5.972,-5.9756,-6.0068,-6.0106,-6.0133,-5.9889,-5.9893,-5.9896,-6.0066,0,-5.9448,-5.9586,-5.9562,-5.9695,-5.9756,-5.9699,-5.9767,-5.979,-5.9787,-5.9837,-5.9832,-5.9889,-5.9824,-5.9838,-5.9892,-5.989,-5.998,-5.9877,-5.9946,-5.9949,-5.9942,-6.0162,-6.0202,-6.0362,-6.0087,-6.0091,-6.0094,0,-5.9666,-5.9707,-5.9847,-5.9864,-5.9888,-5.995,-5.9994,-6.0043,-6.0067,-6.0061,-6.009,-6.0055,-6.0131,-6.0048,-6.0152,-6.0082,-6.0109,-6.0112,-6.0117,-6.0122,-6.003,-6.0172,-6.0412,-6.0436,-6.0128,-6.0125,-6.0122,0,-5.9824,-5.9914,-6.0009,-6.0027,-6.005,-6.0095,-6.0106,-6.0125,-6.0157,-6.0194,-6.0214,-6.0259,-6.0284,-6.0319,-6.0297,-6.0239,-6.0404,-6.0319,-6.04,-6.04,-6.0437,-6.0435,-6.0683,-6.0455,-6.0455,-6.0454,-6.0454,0,-6.0016,-6.0104,-6.0081,-6.0139,-6.0235,-6.0205,-6.03,-6.0304,-6.0322,-6.0379,-6.0331,-6.0385,-6.0352,-6.0403,-6.0386,-6.0474,-6.0485,-6.0481,-6.0475,-6.0486,-6.0486,-6.0502,-6.049,-6.0461,-6.0459,-6.0458,-6.0457,0,-6.0209,-6.0198,-6.0297,-6.0311,-6.0316,-6.0386,-6.0396,-6.045,-6.0443,-6.0516,-6.0531,-6.052,-6.0577,-6.0559,-6.062,-6.0608,-6.072,-6.07,-6.0712,-6.0707,-6.0788,-6.0781,-6.1056,-6.109,-6.084,-6.0843,-6.0845,0,-6.0333,-6.0399,-6.042,-6.0456,-6.0471,-6.0529,-6.0561,-6.0534,-6.0569,-6.0601,-6.065,-6.0704,-6.0745,-6.0839,-6.0835,-6.0881,-6.0862,-6.0955,-6.0868,-6.0876,-6.0862,-6.0859,-6.0865,-6.0972,-6.0975,-6.0977,-6.0979,0,-6.0553,-6.0544,-6.0593,-6.0641,-6.0681,-6.0717,-6.0748,-6.0779,-6.0753,-6.0795,-6.0854,-6.0886,-6.0949,-6.1002,-6.1043,-6.1052,-6.1012,-6.1007,-6.1028,-6.1038,-6.1042,-6.1041,-6.0759,-6.1,-6.0998,-6.0997,-6.0996,-6.0995,-6.0715,-6.0771,-6.0795,-6.0851,-6.0871,-6.0901,-6.0952,-6.0953,-6.1002,-6.1052,-6.1032,-6.11,-6.112,-6.1173,-6.1187,-6.1238,-6.1202,-6.1233,-6.124,-6.1248,-6.1258,-6.1035,-6.1246,-6.1245,-6.1245,-6.1244,-6.1244,0,-6.0932,-6.0945,-6.0997,-6.1042,-6.1086,-6.1045,-6.1077,-6.1116,-6.1177,-6.12,-6.1242,-6.1309,-6.136,-6.1361,-6.1408,-6.1449,-6.1431,-6.1462,-6.1458,-6.1461,-6.1288,-6.1265,-6.1475,-6.1475,-6.1475,-6.1475,-6.1475,-6.1475,-6.105,-6.1143,-6.1136,-6.1238,-6.1248,-6.1316,-6.1337,-6.1364,-6.1383,-6.146,-6.1503,-6.1504,-6.1518,-6.1566,-6.161,-6.1609,-6.1628,-6.1666,-6.1657,-6.1496,-6.1473,-6.1451,-6.1429,-6.167,-6.1671,-6.1825,-6.1827,-6.1828]}]]